DW2363 Weather Reports


time (UTC)temp
F
wind
direction
speed
knots
gust
knots
rain 1hr
in
rain 24hr
in
rain mn
in
humidity
%
barometer
mb
20260906123125 73 175 6.1 12.2 0.00 0.00 0.00 35 1014.6
20260906123119 70 165 12.2 25.2 0.00 0.00 0.00 50 1015.1
20260906122727 73 146 4.3 7.8 0.00 0.00 0.00 33 1014.3
20260906121618 73 157 4.3 7.0 0.00 0.00 0.00 31 1014.3
20260906121118 73 148 5.2 7.8 0.00 0.00 0.00 31 1014.1
20260906120617 74 164 5.2 7.8 0.00 0.00 0.00 31 1014.2
20260906120118 74 165 4.3 7.8 0.00 0.00 0.00 29 1014.1
20260906115617 74 157 4.3 6.1 0.00 0.00 0.00 29 1014.1
20260906115117 74 161 3.5 6.1 0.00 0.00 0.00 26 1014.1
20260906114617 74 138 3.5 6.1 0.00 0.00 0.00 28 1014.0
20260906114117 74 128 2.6 5.2 0.00 0.00 0.00 28 1014.0
20260906113617 74 119 3.5 6.1 0.00 0.00 0.00 31 1014.1
20260906113117 74 100 3.5 6.1 0.00 0.00 0.00 33 1014.1
20260906112615 74 102 3.5 5.2 0.00 0.00 0.00 33 1014.1
20260906112115 74 109 3.5 9.6 0.00 0.00 0.00 33 1014.1
20260906111615 74 136 3.5 9.6 0.00 0.00 0.00 33 1014.1
20260906111115 74 138 5.2 10.4 0.00 0.00 0.00 33 1014.2
20260906110619 75 146 3.5 7.8 0.00 0.00 0.00 31 1014.2
20260906110615 74 142 6.1 10.4 0.00 0.00 0.00 32 1014.3
20260906105615 75 119 2.6 3.5 0.00 0.00 0.00 27 1014.0
20260906105115 74 132 1.7 3.5 0.00 0.00 0.00 25 1014.0
20260906104615 74 144 0.9 2.6 0.00 0.00 0.00 27 1014.1
20260906104114 74 144 2.6 6.1 0.00 0.00 0.00 32 1014.1
20260906103613 74 141 3.5 6.1 0.00 0.00 0.00 33 1014.1
20260906103113 74 141 4.3 7.0 0.00 0.00 0.00 33 1014.1
20260906102613 74 136 5.2 7.0 0.00 0.00 0.00 33 1014.2
20260906102114 74 134 5.2 7.0 0.00 0.00 0.00 33 1014.2
20260906101613 74 133 3.5 7.0 0.00 0.00 0.00 33 1014.2
20260906101113 74 122 3.5 4.3 0.00 0.00 0.00 32 1014.1
20260906100617 74 131 4.3 6.1 0.00 0.00 0.00 34 1014.1
20260906100613 74 125 3.5 4.3 0.00 0.00 0.00 33 1014.1
20260906095616 74 132 5.2 6.1 0.00 0.00 0.00 33 1014.2
20260906095612 74 136 5.2 6.1 0.00 0.00 0.00 33 1014.2
20260906095218 74 135 5.2 6.1 0.00 0.00 0.00 32 1014.3
20260906094111 74 125 4.3 6.1 0.00 0.00 0.00 32 1014.3
20260906093610 74 115 5.2 6.1 0.00 0.00 0.00 32 1014.3
20260906093110 75 111 4.3 6.1 0.00 0.00 0.00 31 1014.3
20260906092613 75 104 3.5 5.2 0.00 0.00 0.00 30 1014.1
20260906092609 75 107 4.3 5.2 0.00 0.00 0.00 31 1014.2
20260906091609 75 94 3.5 5.2 0.00 0.00 0.00 31 1014.1
20260906091111 75 91 3.5 5.2 0.00 0.00 0.00 30 1014.1
20260906091107 75 94 4.3 5.2 0.00 0.00 0.00 30 1014.1
20260906090713 75 90 3.5 5.2 0.00 0.00 0.00 30 1014.2
20260906085611 75 90 3.5 5.2 0.00 0.00 0.00 29 1014.3
20260906085607 75 85 3.5 5.2 0.00 0.00 0.00 30 1014.2
20260906084609 75 86 2.6 5.2 0.00 0.00 0.00 29 1014.3
20260906084605 75 85 2.6 3.5 0.00 0.00 0.00 29 1014.4
20260906084211 75 104 3.5 5.2 0.00 0.00 0.00 29 1014.4
20260906083712 75 98 3.5 6.1 0.00 0.00 0.00 28 1014.4
20260906083104 75 109 4.3 6.1 0.00 0.00 0.00 28 1014.4
20260906082104 75 84 3.5 5.2 0.00 0.00 0.00 27 1014.4
20260906081604 75 88 2.6 5.2 0.00 0.00 0.00 28 1014.4
20260906081104 75 86 2.6 3.5 0.00 0.00 0.00 27 1014.4
20260906080605 75 106 2.6 3.5 0.00 0.00 0.00 27 1014.4
20260906080105 75 115 1.7 3.5 0.00 0.00 0.00 27 1014.5
20260906075605 75 132 1.7 1.7 0.00 0.00 0.00 29 1014.5
20260906075104 75 132 0.9 1.7 0.00 0.00 0.00 30 1014.5
20260906074604 75 132 0.9 2.6 0.00 0.00 0.00 31 1014.5
20260906074104 75 132 1.7 2.6 0.00 0.00 0.00 31 1014.5
20260906073607 75 133 1.7 2.6 0.00 0.00 0.00 27 1014.5
20260906073603 75 132 2.6 2.6 0.00 0.00 0.00 29 1014.5
20260906072602 74 138 0.9 2.6 0.00 0.00 0.00 27 1014.5
20260906072102 74 192 0.0 1.7 0.00 0.00 0.00 27 1014.4
20260906071603 74 195 0.0 1.7 0.00 0.00 0.00 28 1014.4
20260906071102 74 198 0.0 0.0 0.00 0.00 0.00 28 1014.4
20260906070603 74 198 0.0 0.0 0.00 0.00 0.00 28 1014.4
20260906065602 74 198 0.0 0.0 0.00 0.00 0.00 28 1014.4
20260906065102 74 198 0.0 0.9 0.00 0.00 0.00 31 1014.5
20260906064602 74 198 0.0 0.9 0.00 0.00 0.00 33 1014.5
20260906064100 74 198 0.0 1.7 0.00 0.00 0.00 33 1014.5
20260906063600 74 198 0.9 1.7 0.00 0.00 0.00 33 1014.4
20260906063100 74 198 1.7 1.7 0.00 0.00 0.00 34 1014.5
20260906062606 74 198 1.7 2.6 0.00 0.00 0.00 34 1014.5
20260906062600 74 198 1.7 2.6 0.00 0.00 0.00 34 1014.5
20260906061600 74 198 0.9 2.6 0.00 0.00 0.00 34 1014.5
20260906061105 74 198 1.7 2.6 0.00 0.00 0.00 33 1014.6
20260906061059 74 198 1.7 2.6 0.00 0.00 0.00 34 1014.5
20260906060707 74 198 1.7 1.7 0.00 0.00 0.00 33 1014.5
20260906055559 74 198 1.7 1.7 0.00 0.00 0.00 32 1014.5
20260906055058 74 198 1.7 2.6 0.00 0.00 0.00 32 1014.5
20260906054558 74 198 1.7 2.6 0.00 0.00 0.00 30 1014.5
20260906054058 74 198 1.7 2.6 0.00 0.00 0.00 31 1014.6
20260906053605 74 216 0.0 2.6 0.00 0.00 0.00 32 1014.8
20260906053558 74 200 0.9 2.6 0.00 0.00 0.00 31 1014.6
20260906052559 74 233 0.0 1.7 0.00 0.00 0.00 33 1014.8
20260906052058 74 233 0.0 1.7 0.00 0.00 0.00 33 1014.8
20260906051557 74 233 0.9 1.7 0.00 0.00 0.00 33 1014.8
20260906051058 74 233 0.9 1.7 0.00 0.00 0.00 33 1014.8
20260906050558 74 233 0.0 1.7 0.00 0.00 0.00 32 1014.9
20260906050058 74 233 0.9 1.7 0.00 0.00 0.00 33 1014.8
20260906045558 74 233 1.7 2.6 0.00 0.00 0.00 33 1014.9
20260906045058 74 233 1.7 2.6 0.00 0.00 0.00 33 1014.8
20260906044604 74 232 2.6 3.5 0.00 0.00 0.00 33 1014.9
20260906044558 74 232 1.7 2.6 0.00 0.00 0.00 33 1014.8
20260906043558 74 232 2.6 3.5 0.00 0.00 0.00 33 1015.0
20260906043058 74 232 2.6 3.5 0.00 0.00 0.00 33 1014.8
20260906042558 74 232 2.6 4.3 0.00 0.00 0.00 31 1014.9
20260906042103 74 209 3.5 4.3 0.00 0.00 0.00 28 1014.9
20260906042057 74 231 3.5 4.3 0.00 0.00 0.00 29 1014.9
20260906041058 74 191 3.5 4.3 0.00 0.00 0.00 28 1014.8
20260906040556 74 187 3.5 4.3 0.00 0.00 0.00 28 1014.8
20260906040055 75 192 3.5 4.3 0.00 0.00 0.00 29 1014.8
20260906035555 75 207 3.5 4.3 0.00 0.00 0.00 29 1014.6
20260906035055 75 207 2.6 4.3 0.00 0.00 0.00 28 1014.6
20260906034558 75 207 2.6 4.3 0.00 0.00 0.00 31 1014.5
20260906034554 75 207 2.6 4.3 0.00 0.00 0.00 28 1014.4
20260906033554 75 207 2.6 4.3 0.00 0.00 0.00 27 1014.4
20260906033053 74 207 2.6 4.3 0.00 0.00 0.00 26 1014.4
20260906032553 74 207 2.6 4.3 0.00 0.00 0.00 26 1014.3
20260906032053 75 196 2.6 4.3 0.00 0.00 0.00 26 1014.2
20260906031554 75 198 2.6 4.3 0.00 0.00 0.00 26 1014.2
20260906031054 75 194 2.6 3.5 0.00 0.00 0.00 27 1014.1
20260906030554 75 187 2.6 4.3 0.00 0.00 0.00 27 1014.0
20260906030054 75 184 2.6 4.3 0.00 0.00 0.00 31 1014.1
20260906025554 75 207 2.6 4.3 0.00 0.00 0.00 31 1014.1
20260906025058 75 218 3.5 4.3 0.00 0.00 0.00 31 1014.0
20260906025054 75 221 2.6 4.3 0.00 0.00 0.00 31 1014.0
20260906024054 75 223 3.5 4.3 0.00 0.00 0.00 28 1014.0
20260906023557 75 221 3.5 5.2 0.00 0.00 0.00 28 1014.1
20260906023553 75 217 3.5 4.3 0.00 0.00 0.00 29 1014.0
20260906022554 75 224 3.5 5.2 0.00 0.00 0.00 30 1014.1
20260906022053 75 225 3.5 4.3 0.00 0.00 0.00 29 1014.0
20260906021553 76 225 4.3 7.0 0.00 0.00 0.00 28 1014.1
20260906021053 76 213 5.2 7.8 0.00 0.00 0.00 31 1014.1
20260906020559 76 211 4.3 6.1 0.00 0.00 0.00 30 1014.2
20260906020553 76 195 5.2 7.8 0.00 0.00 0.00 30 1014.1
20260906015554 76 194 4.3 6.1 0.00 0.00 0.00 31 1014.1
20260906015058 76 196 4.3 6.1 0.00 0.00 0.00 33 1014.1
20260906015054 76 213 4.3 5.2 0.00 0.00 0.00 31 1014.1
20260906014700 76 193 4.3 7.0 0.00 0.00 0.00 35 1014.0
20260906013553 77 196 4.3 7.0 0.00 0.00 0.00 37 1014.1
20260906013053 77 191 4.3 7.0 0.00 0.00 0.00 32 1014.1
20260906012553 77 182 3.5 6.1 0.00 0.00 0.00 34 1014.1
20260906012053 77 221 4.3 7.0 0.00 0.00 0.00 31 1014.1
20260906011555 78 204 4.3 7.0 0.00 0.00 0.00 38 1014.1
20260906011551 77 232 4.3 7.0 0.00 0.00 0.00 38 1014.2
20260906011158 78 163 3.5 7.0 0.00 0.00 0.00 36 1014.2
20260906010657 78 186 4.3 7.8 0.00 0.00 0.00 38 1014.2
20260906005551 78 192 4.3 7.8 0.00 0.00 0.00 34 1014.2
20260906005051 78 200 4.3 7.0 0.00 0.00 0.00 31 1014.2
20260906004551 78 211 4.3 7.8 0.00 0.00 0.00 32 1014.2
20260906004049 78 175 5.2 7.8 0.00 0.00 0.00 35 1014.1
20260906003549 78 165 5.2 7.8 0.00 0.00 0.00 34 1014.1
20260906003049 78 161 4.3 8.7 0.00 0.00 0.00 35 1014.1
20260906002549 78 155 4.3 8.7 0.00 0.00 0.00 33 1014.0
20260906002049 78 171 5.2 8.7 0.00 0.00 0.00 33 1014.0
20260906001547 78 163 5.2 8.7 0.00 0.00 0.00 33 1014.1
20260906001051 77 170 3.5 7.0 0.00 0.00 0.00 32 1014.2
20260906001047 77 180 4.3 7.8 0.00 0.00 0.00 33 1014.1
20260906000047 77 192 4.3 7.8 0.00 0.00 0.00 33 1014.2
20260905235552 77 159 5.2 7.8 0.00 0.00 0.00 38 1014.2
20260905235547 76 171 4.3 7.8 0.00 0.00 0.00 33 1014.1
20260905234547 77 159 5.2 8.7 0.00 0.00 0.00 37 1014.1
20260905234047 78 166 6.1 9.6 0.00 0.00 0.00 34 1014.2
20260905233546 78 165 6.1 9.6 0.00 0.00 0.00 28 1014.1
20260905233046 78 180 7.0 9.6 0.00 0.00 0.00 27 1014.1
20260905232545 78 178 7.0 9.6 0.00 0.00 0.00 27 1014.1
20260905232045 78 176 6.1 9.6 0.00 0.00 0.00 30 1014.1
20260905231545 78 160 6.1 8.7 0.00 0.00 0.00 28 1014.2
20260905231045 78 144 6.1 8.7 0.00 0.00 0.00 31 1014.3
20260905230545 78 155 6.1 9.6 0.00 0.00 0.00 33 1014.3
20260905230045 78 155 7.0 10.4 0.00 0.00 0.00 35 1014.4
20260905225546 78 175 7.0 10.4 0.00 0.00 0.00 35 1014.4
20260905225046 78 165 6.1 11.3 0.00 0.00 0.00 31 1014.3
20260905224546 78 173 7.0 11.3 0.00 0.00 0.00 33 1014.4
20260905224044 78 189 7.0 11.3 0.00 0.00 0.00 33 1014.4
20260905223543 78 167 7.0 10.4 0.00 0.00 0.00 35 1014.4
20260905223044 78 209 7.8 12.2 0.00 0.00 0.00 34 1014.4
20260905222544 78 174 7.8 12.2 0.00 0.00 0.00 33 1014.4
20260905222044 78 163 7.8 12.2 0.00 0.00 0.00 36 1014.4
20260905221543 78 176 7.0 12.2 0.00 0.00 0.00 33 1014.5
20260905221042 78 155 7.0 11.3 0.00 0.00 0.00 36 1014.6
20260905220542 78 191 6.1 11.3 0.00 0.00 0.00 34 1014.8
20260905220042 78 153 5.2 9.6 0.00 0.00 0.00 34 1014.8
20260905215539 78 149 5.2 8.7 0.00 0.00 0.00 32 1014.8
20260905215039 78 157 5.2 8.7 0.00 0.00 0.00 33 1014.8
20260905214540 77 155 5.2 9.6 0.00 0.00 0.00 34 1014.9
20260905214039 77 134 5.2 10.4 0.00 0.00 0.00 36 1014.9
20260905213539 77 140 5.2 10.4 0.00 0.00 0.00 37 1015.0
20260905213038 77 169 6.1 10.4 0.00 0.00 0.00 34 1015.0
20260905212538 77 162 7.0 12.2 0.00 0.00 0.00 38 1015.1
20260905212039 77 182 7.0 12.2 0.00 0.00 0.00 39 1015.1
20260905211539 77 175 6.1 10.4 0.00 0.00 0.00 42 1015.1
20260905211039 77 139 6.1 12.2 0.00 0.00 0.00 44 1015.1
20260905210538 76 150 5.2 12.2 0.00 0.00 0.00 41 1015.1
20260905210038 77 170 6.1 11.3 0.00 0.00 0.00 40 1015.2
20260905205539 77 172 7.0 12.2 0.00 0.00 0.00 37 1015.3
20260905205039 78 133 6.1 12.2 0.00 0.00 0.00 40 1015.2
20260905204538 78 172 6.1 10.4 0.00 0.00 0.00 42 1015.3
20260905204044 78 156 5.2 10.4 0.00 0.00 0.00 45 1015.3
20260905204038 78 154 5.2 10.4 0.00 0.00 0.00 40 1015.3
20260905203038 78 163 5.2 11.3 0.00 0.00 0.00 44 1015.3
20260905202539 78 178 6.1 11.3 0.00 0.00 0.00 39 1015.3
20260905202039 78 122 7.0 10.4 0.00 0.00 0.00 36 1015.3
20260905201545 78 165 4.3 7.8 0.00 0.00 0.00 43 1015.4
20260905201539 78 174 5.2 10.4 0.00 0.00 0.00 39 1015.4
20260905200539 78 165 5.2 7.8 0.00 0.00 0.00 40 1015.4
20260905200038 77 160 6.1 9.6 0.00 0.00 0.00 44 1015.6
20260905195537 77 155 6.1 11.3 0.00 0.00 0.00 47 1015.6
20260905195036 77 177 5.2 11.3 0.00 0.00 0.00 46 1015.7
20260905194536 77 150 4.3 8.7 0.00 0.00 0.00 47 1015.7
20260905194036 77 180 4.3 10.4 0.00 0.00 0.00 46 1015.7
20260905193536 77 137 4.3 10.4 0.00 0.00 0.00 40 1015.6
20260905193035 77 157 4.3 10.4 0.00 0.00 0.00 42 1015.6
20260905192534 77 118 4.3 10.4 0.00 0.00 0.00 42 1015.7
20260905192033 76 150 4.3 10.4 0.00 0.00 0.00 51 1015.8
20260905191535 76 190 5.2 10.4 0.00 0.00 0.00 46 1015.9
20260905191035 76 144 7.0 10.4 0.00 0.00 0.00 48 1015.8
20260905190537 76 140 5.2 8.7 0.00 0.00 0.00 37 1016.0
20260905190533 77 142 6.1 10.4 0.00 0.00 0.00 38 1015.9
20260905185532 76 169 5.2 8.7 0.00 0.00 0.00 42 1015.9
20260905185032 76 127 4.3 8.7 0.00 0.00 0.00 41 1016.0
20260905184532 76 90 5.2 8.7 0.00 0.00 0.00 40 1016.2
20260905184033 76 139 4.3 10.4 0.00 0.00 0.00 48 1016.2
20260905183532 76 132 4.3 10.4 0.00 0.00 0.00 47 1016.0
20260905183032 76 139 5.2 8.7 0.00 0.00 0.00 41 1016.2
20260905182533 76 128 5.2 8.7 0.00 0.00 0.00 38 1016.2
20260905182033 76 113 4.3 8.7 0.00 0.00 0.00 38 1016.2
20260905181532 76 153 3.5 8.7 0.00 0.00 0.00 37 1016.2
20260905181030 75 115 3.5 7.0 0.00 0.00 0.00 33 1016.2
20260905180528 75 155 4.3 8.7 0.00 0.00 0.00 31 1016.3
20260905180028 75 111 4.3 8.7 0.00 0.00 0.00 31 1016.2
20260905175528 75 124 4.3 7.8 0.00 0.00 0.00 36 1016.0
20260905175027 74 106 5.2 9.6 0.00 0.00 0.00 30 1016.0
20260905174526 74 123 6.1 10.4 0.00 0.00 0.00 38 1016.0
20260905174027 73 115 7.0 12.2 0.00 0.00 0.00 41 1015.9
20260905173531 72 100 8.7 12.2 0.00 0.00 0.00 34 1015.8
20260905173526 73 94 7.8 12.2 0.00 0.00 0.00 40 1015.9
20260905173133 73 106 7.8 12.2 0.00 0.00 0.00 36 1015.7
20260905172030 73 103 7.8 11.3 0.00 0.00 0.00 39 1015.7
20260905172026 73 119 7.8 12.2 0.00 0.00 0.00 39 1015.8
20260905171633 73 127 7.8 10.4 0.00 0.00 0.00 36 1015.6
20260905170525 74 117 7.8 10.4 0.00 0.00 0.00 36 1015.5
20260905170027 74 109 7.0 10.4 0.00 0.00 0.00 32 1015.6
20260905165520 73 120 7.0 11.3 0.00 0.00 0.00 31 1015.6
20260905165020 73 88 7.0 11.3 0.00 0.00 0.00 28 1015.5
20260905164520 72 94 7.0 10.4 0.00 0.00 0.00 26 1015.5
20260905164020 72 103 7.8 10.4 0.00 0.00 0.00 30 1015.4
20260905163520 72 65 7.8 9.6 0.00 0.00 0.00 31 1015.4
20260905163020 72 71 7.0 9.6 0.00 0.00 0.00 34 1015.3
20260905162519 73 70 6.1 8.7 0.00 0.00 0.00 35 1015.3
20260905162020 72 91 5.2 7.8 0.00 0.00 0.00 31 1015.2
20260905161520 72 55 5.2 7.8 0.00 0.00 0.00 32 1015.3
20260905161020 72 67 4.3 7.8 0.00 0.00 0.00 28 1015.2
20260905160520 72 60 4.3 7.0 0.00 0.00 0.00 34 1015.2
20260905160020 72 97 4.3 9.6 0.00 0.00 0.00 32 1015.2
20260905155520 71 55 5.2 9.6 0.00 0.00 0.00 34 1015.1
20260905155020 71 63 5.2 8.7 0.00 0.00 0.00 36 1015.1
20260905154517 71 60 4.3 10.4 0.00 0.00 0.00 34 1015.1
20260905154019 70 81 4.3 10.4 0.00 0.00 0.00 45 1015.1
20260905153518 70 89 6.1 10.4 0.00 0.00 0.00 38 1015.0
20260905153019 69 74 7.0 10.4 0.00 0.00 0.00 38 1015.0
20260905152518 69 85 6.1 8.7 0.00 0.00 0.00 40 1015.0
20260905152016 69 96 7.0 10.4 0.00 0.00 0.00 41 1015.0
20260905151516 69 94 7.8 10.4 0.00 0.00 0.00 39 1015.0
20260905151024 69 87 7.8 10.4 0.00 0.00 0.00 37 1014.8
20260905151017 69 95 7.8 10.4 0.00 0.00 0.00 33 1014.9
20260905150016 68 82 7.8 10.4 0.00 0.00 0.00 40 1014.6
20260905145516 69 89 7.8 10.4 0.00 0.00 0.00 40 1014.6
20260905145015 68 94 7.8 10.4 0.00 0.00 0.00 37 1014.5
20260905144515 68 85 7.8 10.4 0.00 0.00 0.00 41 1014.5
20260905144014 68 93 8.7 10.4 0.00 0.00 0.00 38 1014.5
20260905143518 67 88 9.6 11.3 0.00 0.00 0.00 41 1014.4
20260905143514 67 88 8.7 10.4 0.00 0.00 0.00 36 1014.3
20260905143122 67 90 8.7 12.2 0.00 0.00 0.00 38 1014.3
20260905142622 66 85 7.8 12.2 0.00 0.00 0.00 49 1014.4
20260905142122 66 88 8.7 12.2 0.00 0.00 0.00 38 1014.2
20260905141512 66 74 8.7 12.2 0.00 0.00 0.00 47 1014.3
20260905140511 65 86 8.7 10.4 0.00 0.00 0.00 49 1014.2
20260905140011 66 75 8.7 10.4 0.00 0.00 0.00 48 1014.2
20260905135511 65 90 7.0 10.4 0.00 0.00 0.00 44 1014.1
20260905135012 65 78 6.1 10.4 0.00 0.00 0.00 53 1014.1
20260905134512 65 79 6.1 10.4 0.00 0.00 0.00 55 1014.0
20260905134011 65 49 6.1 10.4 0.00 0.00 0.00 63 1014.0
20260905133511 66 67 7.8 11.3 0.00 0.00 0.00 46 1013.9
20260905133011 66 76 9.6 12.2 0.00 0.00 0.00 45 1013.9
20260905132511 66 74 9.6 12.2 0.00 0.00 0.00 37 1013.8
20260905132012 65 82 7.8 12.2 0.00 0.00 0.00 36 1013.7
20260905131511 65 71 7.0 9.6 0.00 0.00 0.00 50 1013.7
20260905131011 65 51 7.0 10.4 0.00 0.00 0.00 53 1013.7
20260905130512 66 57 7.8 10.4 0.00 0.00 0.00 45 1013.5
20260905130013 66 74 7.8 10.4 0.00 0.00 0.00 39 1013.6
20260905125511 66 76 7.8 10.4 0.00 0.00 0.00 41 1013.6
20260905125015 65 66 6.1 11.3 0.00 0.00 0.00 49 1013.7
20260905125011 65 92 7.0 11.3 0.00 0.00 0.00 43 1013.7
20260905124011 65 72 5.2 8.7 0.00 0.00 0.00 56 1013.7
20260905123511 65 59 5.2 8.7 0.00 0.00 0.00 52 1013.7